ASL130 LYBE-UUEE

Flight info

Callsign ASL130
Flight time 3h 8m
Altitude 35000
Route TISAK DCT PARAK DCT KEKED DCT PODAN DCT BOKSU/N0448F370 DCT LAFAT/K0828F370 L29 INKUZ N858 BENIM M997 RATIN L999 AGLAN M864 DIPOP DIPOP3E
Aircraft A320/M-SDE3FGHIRWY/HB1

Departure

Time 2026-05-01 09:22
Airport Belgrade Nikola Tesla Airport (LYBE)

Arrival

Time 2026-05-01 12:31
Airport Sheremetyevo International Airport (UUEE)
Time Latitude Longitude Altitude Speed Heading
2026-05-01 08:49 44.82167 20.29109 308 ft 0 kts 212°
2026-05-01 09:16 44.82183 20.29123 307 ft 4 kts 212°
2026-05-01 09:16 44.82202 20.29140 307 ft 4 kts 202°
2026-05-01 09:16 44.82225 20.29142 305 ft 4 kts 146°
2026-05-01 09:17 44.82256 20.29084 306 ft 4 kts 122°
2026-05-01 09:17 44.82268 20.29058 308 ft 1 kts 122°
2026-05-01 09:17 44.82268 20.29057 308 ft 0 kts 122°
2026-05-01 09:19 44.82266 20.29062 305 ft 2 kts 122°
2026-05-01 09:19 44.82257 20.29108 307 ft 6 kts 85°
2026-05-01 09:20 44.82320 20.29124 310 ft 6 kts 302°
2026-05-01 09:20 44.82388 20.28973 307 ft 12 kts 301°
2026-05-01 09:21 44.82526 20.28868 307 ft 15 kts 36°
2026-05-01 09:21 44.82604 20.28976 307 ft 17 kts 61°
2026-05-01 09:21 44.82540 20.29347 307 ft 44 kts 122°
2026-05-01 09:22 44.81762 20.31103 307 ft 155 kts 122°
2026-05-01 09:22 44.80438 20.33993 1146 ft 181 kts 120°
2026-05-01 09:23 44.79780 20.35512 1848 ft 182 kts 120°
2026-05-01 09:23 44.78330 20.38835 2530 ft 221 kts 120°
2026-05-01 09:24 44.76656 20.42611 4051 ft 230 kts 120°
2026-05-01 09:24 44.75798 20.44525 4880 ft 232 kts 120°
2026-05-01 09:24 44.74060 20.48408 6507 ft 237 kts 120°
2026-05-01 09:25 44.72324 20.52399 8017 ft 240 kts 110°
2026-05-01 09:25 44.72507 20.56809 9531 ft 233 kts 56°
2026-05-01 09:26 44.73630 20.58432 10292 ft 237 kts 33°
2026-05-01 09:26 44.77071 20.58610 11060 ft 276 kts 342°
2026-05-01 09:26 44.78875 20.57621 11731 ft 280 kts 342°
2026-05-01 09:27 44.82540 20.55609 13100 ft 286 kts 342°
2026-05-01 09:27 44.84406 20.54591 13787 ft 289 kts 342°
2026-05-01 09:27 44.86294 20.53560 14428 ft 292 kts 342°
2026-05-01 09:28 44.88199 20.52523 15027 ft 295 kts 342°
2026-05-01 09:28 44.90122 20.51473 15642 ft 297 kts 342°
2026-05-01 09:28 44.92056 20.50413 16249 ft 300 kts 342°
2026-05-01 09:28 44.94010 20.49343 16848 ft 302 kts 342°
2026-05-01 09:29 44.97964 20.47174 18046 ft 307 kts 342°
2026-05-01 09:29 44.99965 20.46074 18636 ft 310 kts 342°
2026-05-01 09:30 45.03988 20.43875 19641 ft 315 kts 342°
2026-05-01 09:30 45.06043 20.42751 20142 ft 317 kts 341°
2026-05-01 09:30 45.10186 20.40471 21125 ft 322 kts 341°
2026-05-01 09:31 45.12283 20.39312 21595 ft 325 kts 341°
2026-05-01 09:31 45.14391 20.38146 22076 ft 326 kts 342°
2026-05-01 09:31 45.18650 20.35796 22993 ft 331 kts 342°
2026-05-01 09:32 45.20802 20.34607 23458 ft 333 kts 342°
2026-05-01 09:32 45.25145 20.32200 24289 ft 338 kts 342°
2026-05-01 09:32 45.27341 20.30984 24675 ft 340 kts 342°
2026-05-01 09:33 45.29555 20.29760 25049 ft 342 kts 342°
2026-05-01 09:33 45.31776 20.28530 25434 ft 343 kts 342°
2026-05-01 09:33 45.36255 20.26052 26180 ft 347 kts 343°
2026-05-01 09:34 45.38478 20.24817 26576 ft 348 kts 343°
2026-05-01 09:34 45.40736 20.23562 26957 ft 350 kts 344°
2026-05-01 09:34 45.45478 20.22148 27421 ft 354 kts 357°
2026-05-01 09:35 45.47952 20.21722 27524 ft 362 kts 358°
2026-05-01 09:35 45.53070 20.20827 27800 ft 378 kts 358°
2026-05-01 09:35 45.55707 20.20358 27938 ft 386 kts 358°
2026-05-01 09:36 45.58393 20.19874 28069 ft 392 kts 359°
2026-05-01 09:36 45.61119 20.19385 28211 ft 399 kts 359°
2026-05-01 09:36 45.63887 20.18887 28458 ft 402 kts 359°
2026-05-01 09:36 45.66674 20.18388 28766 ft 405 kts 359°
2026-05-01 09:37 45.69475 20.17886 29130 ft 405 kts 359°
2026-05-01 09:37 45.75047 20.16882 30118 ft 402 kts 359°
2026-05-01 09:37 45.77811 20.16384 30578 ft 400 kts 360°
2026-05-01 09:38 45.83311 20.15392 31438 ft 396 kts
2026-05-01 09:38 45.86052 20.14899 31815 ft 396 kts 360°
2026-05-01 09:38 45.88792 20.14408 32166 ft 396 kts 359°
2026-05-01 09:39 45.94228 20.13431 32847 ft 397 kts 359°
2026-05-01 09:39 45.96966 20.12940 33231 ft 396 kts 359°
2026-05-01 09:39 45.99701 20.12448 33602 ft 396 kts 359°
2026-05-01 09:40 46.02439 20.11953 33968 ft 396 kts 359°
2026-05-01 09:40 46.07901 20.10960 34621 ft 396 kts 358°
2026-05-01 09:40 46.10636 20.10464 34876 ft 397 kts 358°
2026-05-01 09:41 46.13375 20.09990 35118 ft 396 kts
2026-05-01 09:41 46.18794 20.10634 35361 ft 392 kts 18°
2026-05-01 09:41 46.21409 20.11842 35365 ft 398 kts 21°
2026-05-01 09:42 46.26670 20.14419 35358 ft 400 kts 21°
2026-05-01 09:43 46.37225 20.19548 35358 ft 400 kts 21°
2026-05-01 09:43 46.42507 20.22123 35355 ft 400 kts 21°
2026-05-01 09:44 46.50374 20.25967 35371 ft 399 kts 21°
2026-05-01 09:45 46.55632 20.28550 35373 ft 399 kts 21°
2026-05-01 09:45 46.63505 20.32439 35378 ft 398 kts 22°
2026-05-01 09:46 46.68745 20.35026 35380 ft 397 kts 22°
2026-05-01 09:46 46.73094 20.37174 35379 ft 396 kts 22°
2026-05-01 09:47 46.78313 20.39754 35389 ft 395 kts 22°
2026-05-01 09:47 46.83519 20.42342 35385 ft 395 kts 22°
2026-05-01 09:48 46.88707 20.44928 35378 ft 394 kts 22°
2026-05-01 09:48 46.93885 20.47505 35384 ft 393 kts 22°
2026-05-01 09:49 46.99059 20.50082 35380 ft 392 kts 22°
2026-05-01 09:49 47.04192 20.52655 35385 ft 392 kts 22°
2026-05-01 09:50 47.09354 20.55249 35383 ft 392 kts 22°
2026-05-01 09:50 47.14513 20.57837 35385 ft 392 kts 22°
2026-05-01 09:51 47.19676 20.60432 35392 ft 392 kts 22°
2026-05-01 09:51 47.24826 20.63035 35386 ft 391 kts 22°
2026-05-01 09:52 47.29965 20.65637 35391 ft 390 kts 22°
2026-05-01 09:52 47.35097 20.68240 35393 ft 389 kts 23°
2026-05-01 09:53 47.40215 20.70842 35381 ft 389 kts 22°
2026-05-01 09:53 47.45295 20.73422 35387 ft 388 kts 23°
2026-05-01 09:54 47.50379 20.76017 35393 ft 386 kts 23°
2026-05-01 09:54 47.55451 20.78606 35395 ft 385 kts 23°
2026-05-01 09:55 47.60510 20.81202 35391 ft 384 kts 23°
2026-05-01 09:55 47.65559 20.83788 35399 ft 383 kts 23°
2026-05-01 09:56 47.70584 20.86369 35397 ft 382 kts 23°
2026-05-01 09:56 47.75597 20.88952 35394 ft 381 kts 23°
2026-05-01 09:57 47.80603 20.91530 35393 ft 381 kts 23°
2026-05-01 09:57 47.85599 20.94117 35396 ft 380 kts 23°
2026-05-01 09:58 47.90553 20.96690 35390 ft 379 kts 23°
2026-05-01 09:58 47.95530 20.99264 35389 ft 378 kts 23°
2026-05-01 09:59 48.00498 21.01845 35386 ft 378 kts 23°
2026-05-01 09:59 48.05452 21.04435 35379 ft 377 kts 23°
2026-05-01 10:00 48.10394 21.07022 35383 ft 376 kts 24°
2026-05-01 10:00 48.15333 21.09611 35384 ft 375 kts 23°
2026-05-01 10:01 48.20262 21.12197 35381 ft 375 kts 23°
2026-05-01 10:01 48.25193 21.14784 35379 ft 375 kts 23°
2026-05-01 10:02 48.30083 21.17363 35378 ft 375 kts 23°
2026-05-01 10:02 48.35001 21.19960 35378 ft 375 kts 23°
2026-05-01 10:03 48.39917 21.22553 35380 ft 375 kts 23°
2026-05-01 10:03 48.44836 21.25162 35375 ft 374 kts 23°
2026-05-01 10:04 48.49743 21.27774 35378 ft 374 kts 23°
2026-05-01 10:04 48.54838 21.29559 35367 ft 381 kts 12°
2026-05-01 10:05 48.60108 21.30404 35362 ft 381 kts 12°
2026-05-01 10:05 48.65353 21.31262 35321 ft 382 kts 12°
2026-05-01 10:06 48.70642 21.32140 35330 ft 383 kts 12°
2026-05-01 10:06 48.75946 21.33016 35339 ft 384 kts 12°
2026-05-01 10:07 48.81256 21.33892 35347 ft 384 kts 12°
2026-05-01 10:07 48.86573 21.34775 35356 ft 384 kts 12°
2026-05-01 10:08 48.94542 21.36100 35355 ft 384 kts 11°
2026-05-01 10:09 48.99861 21.36975 35362 ft 384 kts 11°
2026-05-01 10:09 49.05179 21.37852 35364 ft 384 kts 11°
2026-05-01 10:10 49.10493 21.38743 35359 ft 384 kts 12°
2026-05-01 10:10 49.18469 21.40083 35363 ft 384 kts 12°
2026-05-01 10:11 49.23762 21.40968 35368 ft 384 kts 12°
2026-05-01 10:11 49.29077 21.41859 35361 ft 384 kts 12°
2026-05-01 10:12 49.34396 21.42760 35363 ft 385 kts 11°
2026-05-01 10:13 49.42365 21.44162 35330 ft 383 kts 13°
2026-05-01 10:13 49.47607 21.45613 35341 ft 382 kts 16°
2026-05-01 10:14 49.55429 21.48128 35346 ft 383 kts 15°
2026-05-01 10:14 49.60665 21.49724 35356 ft 384 kts 15°
2026-05-01 10:15 49.65914 21.51268 35359 ft 384 kts 15°
2026-05-01 10:15 49.71159 21.52818 35369 ft 384 kts 15°
2026-05-01 10:16 49.76366 21.54383 35370 ft 383 kts 15°
2026-05-01 10:17 49.84219 21.56770 35368 ft 384 kts 15°
2026-05-01 10:17 49.92082 21.59145 35369 ft 384 kts 15°
2026-05-01 10:18 49.99940 21.61522 35369 ft 383 kts 15°
2026-05-01 10:19 50.05178 21.63119 35366 ft 384 kts 15°
2026-05-01 10:19 50.10409 21.64719 35369 ft 383 kts 15°
2026-05-01 10:20 50.18230 21.67108 35369 ft 383 kts 15°
2026-05-01 10:20 50.23460 21.68714 35367 ft 383 kts 15°
2026-05-01 10:21 50.31301 21.71116 35365 ft 383 kts 15°
2026-05-01 10:22 50.39142 21.73529 35324 ft 383 kts 15°
2026-05-01 10:23 50.46991 21.75977 35337 ft 384 kts 15°
2026-05-01 10:23 50.54858 21.78413 35348 ft 384 kts 15°
2026-05-01 10:24 50.65347 21.81667 35353 ft 384 kts 15°
2026-05-01 10:25 50.75780 21.84958 35347 ft 383 kts 15°
2026-05-01 10:26 50.81016 21.86602 35348 ft 383 kts 15°
2026-05-01 10:27 50.91487 21.89893 35351 ft 384 kts 15°
2026-05-01 10:28 50.99343 21.92378 35352 ft 384 kts 15°
2026-05-01 10:28 51.07198 21.94880 35350 ft 383 kts 15°
2026-05-01 10:29 51.15032 21.97385 35348 ft 383 kts 15°
2026-05-01 10:30 51.25436 22.00723 35346 ft 382 kts 14°
2026-05-01 10:31 51.35868 22.04058 35345 ft 382 kts 14°
2026-05-01 10:32 51.43696 22.06587 35313 ft 383 kts 14°
2026-05-01 10:33 51.54147 22.09987 35320 ft 383 kts 14°
2026-05-01 10:34 51.61996 22.12540 35327 ft 384 kts 14°
2026-05-01 10:34 51.67230 22.14242 35314 ft 384 kts 14°
2026-05-01 10:35 51.75047 22.16811 35317 ft 384 kts 14°
2026-05-01 10:35 51.80291 22.18531 35320 ft 385 kts 14°
2026-05-01 10:36 51.88164 22.21127 35314 ft 385 kts 14°
2026-05-01 10:37 51.93407 22.22856 35313 ft 385 kts 14°
2026-05-01 10:37 52.01278 22.25452 35314 ft 385 kts 14°
2026-05-01 10:38 52.06527 22.27211 35320 ft 385 kts 14°
2026-05-01 10:38 52.11744 22.28951 35320 ft 385 kts 14°
2026-05-01 10:39 52.16993 22.30701 35327 ft 385 kts 14°
2026-05-01 10:39 52.22235 22.32460 35322 ft 385 kts 14°
2026-05-01 10:40 52.27487 22.34229 35323 ft 385 kts 14°
2026-05-01 10:40 52.32729 22.36002 35327 ft 385 kts 14°
2026-05-01 10:41 52.37980 22.37769 35326 ft 385 kts 14°
2026-05-01 10:42 52.45855 22.40422 35304 ft 386 kts 14°
2026-05-01 10:42 52.51118 22.42205 35315 ft 386 kts 14°
2026-05-01 10:43 52.56352 22.43984 35325 ft 387 kts 14°
2026-05-01 10:43 52.61625 22.45782 35330 ft 387 kts 14°
2026-05-01 10:44 52.66899 22.47590 35335 ft 387 kts 14°
2026-05-01 10:44 52.72171 22.49391 35335 ft 387 kts 14°
2026-05-01 10:45 52.76548 22.50888 35333 ft 387 kts 14°
2026-05-01 10:45 52.81816 22.52701 35338 ft 387 kts 14°
2026-05-01 10:46 52.87082 22.54522 35336 ft 386 kts 14°
2026-05-01 10:46 52.92345 22.56353 35338 ft 386 kts 14°
2026-05-01 10:47 52.97599 22.58178 35335 ft 386 kts 13°
2026-05-01 10:47 53.02859 22.59998 35333 ft 386 kts 13°
2026-05-01 10:48 53.08111 22.61825 35330 ft 386 kts 14°
2026-05-01 10:48 53.13370 22.63667 35334 ft 386 kts 13°
2026-05-01 10:49 53.18619 22.65515 35334 ft 386 kts 13°
2026-05-01 10:49 53.23875 22.67361 35334 ft 386 kts 13°
2026-05-01 10:50 53.29094 22.69192 35333 ft 386 kts 13°
2026-05-01 10:50 53.34349 22.71045 35337 ft 386 kts 13°
2026-05-01 10:51 53.39604 22.72905 35337 ft 386 kts 13°
2026-05-01 10:51 53.44856 22.74772 35290 ft 386 kts 13°
2026-05-01 10:52 53.50106 22.76635 35298 ft 386 kts 13°
2026-05-01 10:52 53.55374 22.78509 35304 ft 387 kts 13°
2026-05-01 10:53 53.60651 22.80398 35315 ft 388 kts 13°
2026-05-01 10:53 53.65936 22.82286 35322 ft 388 kts 13°
2026-05-01 10:54 53.71224 22.84184 35327 ft 388 kts 13°
2026-05-01 10:54 53.76511 22.86092 35334 ft 389 kts 13°
2026-05-01 10:55 53.81766 22.87986 35333 ft 389 kts 13°
2026-05-01 10:55 53.87054 22.89903 35334 ft 389 kts 13°
2026-05-01 10:56 53.92343 22.91824 35333 ft 389 kts 13°
2026-05-01 10:56 53.97636 22.93759 35334 ft 389 kts 13°
2026-05-01 10:57 54.02925 22.95685 35335 ft 389 kts 13°
2026-05-01 10:57 54.08224 22.97615 35339 ft 389 kts 13°
2026-05-01 10:58 54.13513 22.99554 35340 ft 389 kts 13°
2026-05-01 10:58 54.18805 23.01499 35337 ft 389 kts 13°
2026-05-01 10:59 54.24063 23.03441 35341 ft 389 kts 14°
2026-05-01 10:59 54.26657 23.04916 35339 ft 388 kts 25°
2026-05-01 10:59 54.28932 23.07277 35338 ft 389 kts 36°
2026-05-01 10:59 54.30907 23.10533 35339 ft 393 kts 47°
2026-05-01 11:00 54.32394 23.14412 35332 ft 399 kts 59°
2026-05-01 11:00 54.34351 23.23390 35330 ft 403 kts 65°
2026-05-01 11:01 54.36203 23.32483 35325 ft 404 kts 65°
2026-05-01 11:01 54.38050 23.41599 35326 ft 405 kts 65°
2026-05-01 11:02 54.39894 23.50730 35329 ft 405 kts 65°
2026-05-01 11:02 54.41732 23.59873 35330 ft 405 kts 65°
2026-05-01 11:03 54.43563 23.69027 35363 ft 405 kts 65°
2026-05-01 11:03 54.45386 23.78166 35352 ft 404 kts 65°
2026-05-01 11:04 54.47206 23.87296 35348 ft 403 kts 65°
2026-05-01 11:04 54.49007 23.96434 35343 ft 403 kts 65°
2026-05-01 11:05 54.50787 24.05514 35337 ft 403 kts 65°
2026-05-01 11:05 54.52578 24.14662 35330 ft 403 kts 65°
2026-05-01 11:06 54.54365 24.23814 35331 ft 403 kts 65°
2026-05-01 11:06 54.56146 24.32973 35329 ft 403 kts 65°
2026-05-01 11:07 54.58782 24.46667 35308 ft 400 kts 65°
2026-05-01 11:07 54.60528 24.55781 35308 ft 400 kts 65°
2026-05-01 11:08 54.62260 24.64851 35307 ft 401 kts 65°
2026-05-01 11:09 54.64859 24.78563 35312 ft 401 kts 66°
2026-05-01 11:09 54.66576 24.87722 35309 ft 401 kts 66°
2026-05-01 11:10 54.69152 25.01465 35307 ft 401 kts 66°
2026-05-01 11:10 54.70864 25.10633 35331 ft 400 kts 66°
2026-05-01 11:11 54.72551 25.19789 35322 ft 399 kts 66°
2026-05-01 11:11 54.74236 25.28926 35319 ft 398 kts 66°
2026-05-01 11:12 54.75918 25.38056 35302 ft 399 kts 66°
2026-05-01 11:12 54.77586 25.47214 35301 ft 399 kts 66°
2026-05-01 11:13 54.79246 25.56392 35298 ft 399 kts 66°
2026-05-01 11:13 54.80899 25.65524 35300 ft 399 kts 66°
2026-05-01 11:14 54.82550 25.74709 35299 ft 399 kts 66°
2026-05-01 11:14 54.84092 25.83977 35304 ft 401 kts 69°
2026-05-01 11:15 54.85369 25.93377 35302 ft 400 kts 70°
2026-05-01 11:15 54.86606 26.02808 35298 ft 400 kts 70°
2026-05-01 11:16 54.87882 26.12216 35294 ft 400 kts 69°
2026-05-01 11:16 54.89171 26.21622 35296 ft 400 kts 69°
2026-05-01 11:17 54.90464 26.31016 35298 ft 400 kts 69°
2026-05-01 11:17 54.91741 26.40374 35296 ft 400 kts 70°
2026-05-01 11:18 54.93009 26.49782 35293 ft 400 kts 70°
2026-05-01 11:18 54.94272 26.59202 35295 ft 398 kts 70°
2026-05-01 11:19 54.95514 26.68580 35295 ft 398 kts 70°
2026-05-01 11:19 54.96757 26.77971 35292 ft 398 kts 70°
2026-05-01 11:20 54.97992 26.87387 35293 ft 399 kts 70°
2026-05-01 11:20 54.99215 26.96803 35285 ft 399 kts 70°
2026-05-01 11:21 55.00436 27.06222 35288 ft 399 kts 70°
2026-05-01 11:21 55.01642 27.15585 35289 ft 399 kts 70°
2026-05-01 11:22 55.02854 27.25014 35322 ft 399 kts 70°
2026-05-01 11:22 55.04057 27.34447 35313 ft 398 kts 70°
2026-05-01 11:23 55.05241 27.43882 35307 ft 398 kts 70°
2026-05-01 11:23 55.06411 27.53324 35300 ft 398 kts 70°
2026-05-01 11:24 55.07570 27.62774 35296 ft 398 kts 70°
2026-05-01 11:25 55.09287 27.76953 35287 ft 399 kts 70°
2026-05-01 11:25 55.10983 27.91175 35281 ft 399 kts 70°
2026-05-01 11:26 55.12682 28.05387 35284 ft 399 kts 70°
2026-05-01 11:27 55.13797 28.14880 35277 ft 399 kts 71°
2026-05-01 11:27 55.14788 28.24434 35274 ft 404 kts 75°
2026-05-01 11:28 55.15384 28.34134 35277 ft 404 kts 76°
2026-05-01 11:28 55.15963 28.43916 35274 ft 405 kts 76°
2026-05-01 11:29 55.16821 28.58597 35273 ft 405 kts 76°
2026-05-01 11:30 55.17679 28.73287 35264 ft 404 kts 76°
2026-05-01 11:30 55.18241 28.83084 35263 ft 404 kts 76°
2026-05-01 11:31 55.18795 28.92898 35262 ft 405 kts 76°
2026-05-01 11:31 55.19333 29.02705 35263 ft 405 kts 76°
2026-05-01 11:32 55.19863 29.12461 35260 ft 405 kts 76°
2026-05-01 11:32 55.20387 29.22290 35258 ft 405 kts 76°
2026-05-01 11:33 55.20903 29.32113 35286 ft 405 kts 76°
2026-05-01 11:33 55.21418 29.41948 35266 ft 405 kts 76°
2026-05-01 11:34 55.21922 29.51714 35258 ft 405 kts 76°
2026-05-01 11:34 55.22415 29.61544 35256 ft 406 kts 76°
2026-05-01 11:35 55.22900 29.71387 35252 ft 406 kts 77°
2026-05-01 11:35 55.23379 29.81235 35249 ft 406 kts 77°
2026-05-01 11:36 55.23852 29.91078 35253 ft 406 kts 77°
2026-05-01 11:36 55.24323 30.00950 35266 ft 406 kts 77°
2026-05-01 11:37 55.24780 30.10804 35256 ft 406 kts 77°
2026-05-01 11:37 55.25232 30.20674 35248 ft 407 kts 77°
2026-05-01 11:38 55.25672 30.30563 35248 ft 407 kts 77°
2026-05-01 11:38 55.26102 30.40401 35249 ft 408 kts 77°
2026-05-01 11:39 55.26531 30.50318 35248 ft 408 kts 77°
2026-05-01 11:39 55.26950 30.60243 35252 ft 408 kts 77°
2026-05-01 11:40 55.27358 30.70164 35261 ft 408 kts 78°
2026-05-01 11:40 55.27750 30.80092 35254 ft 408 kts 78°
2026-05-01 11:41 55.28683 30.89747 35253 ft 395 kts 64°
2026-05-01 11:41 55.30155 30.97327 35252 ft 395 kts 64°
2026-05-01 11:42 55.31903 31.06460 35248 ft 395 kts 65°
2026-05-01 11:42 55.33643 31.15626 35239 ft 396 kts 65°
2026-05-01 11:43 55.35371 31.24817 35249 ft 396 kts 65°
2026-05-01 11:43 55.37098 31.34019 35248 ft 396 kts 65°
2026-05-01 11:44 55.39689 31.47832 35272 ft 396 kts 65°
2026-05-01 11:44 55.41398 31.57059 35266 ft 396 kts 65°
2026-05-01 11:45 55.43087 31.66227 35268 ft 396 kts 65°
2026-05-01 11:45 55.44785 31.75464 35261 ft 396 kts 65°
2026-05-01 11:46 55.46479 31.84711 35255 ft 397 kts 65°
2026-05-01 11:46 55.48168 31.93962 35254 ft 397 kts 65°
2026-05-01 11:47 55.49849 32.03227 35249 ft 397 kts 65°
2026-05-01 11:47 55.51516 32.12510 35249 ft 397 kts 65°
2026-05-01 11:48 55.53182 32.21792 35245 ft 396 kts 65°
2026-05-01 11:48 55.54840 32.31088 35291 ft 396 kts 66°
2026-05-01 11:49 55.56474 32.40300 35262 ft 395 kts 65°
2026-05-01 11:49 55.58114 32.49567 35260 ft 395 kts 65°
2026-05-01 11:50 55.59746 32.58834 35254 ft 395 kts 66°
2026-05-01 11:50 55.61369 32.68111 35242 ft 395 kts 66°
2026-05-01 11:51 55.62982 32.77395 35236 ft 395 kts 66°
2026-05-01 11:51 55.64586 32.86691 35234 ft 395 kts 66°
2026-05-01 11:52 55.66191 32.96002 35232 ft 395 kts 66°
2026-05-01 11:52 55.67780 33.05243 35231 ft 395 kts 66°
2026-05-01 11:53 55.69369 33.14581 35234 ft 396 kts 66°
2026-05-01 11:53 55.70949 33.23943 34920 ft 395 kts 66°
2026-05-01 11:54 55.71731 33.28596 34682 ft 393 kts 66°
2026-05-01 11:54 55.72511 33.33226 34451 ft 391 kts 65°
2026-05-01 11:54 55.73292 33.37844 34215 ft 389 kts 65°
2026-05-01 11:54 55.74065 33.42422 33946 ft 388 kts 65°
2026-05-01 11:55 55.74837 33.47003 33670 ft 387 kts 65°
2026-05-01 11:55 55.75602 33.51572 33393 ft 385 kts 65°
2026-05-01 11:55 55.76357 33.56125 33122 ft 383 kts 65°
2026-05-01 11:55 55.77105 33.60668 32849 ft 381 kts 65°
2026-05-01 11:56 55.77844 33.65171 32583 ft 380 kts 65°
2026-05-01 11:56 55.78581 33.69665 32335 ft 378 kts 65°
2026-05-01 11:56 55.79305 33.74077 32077 ft 376 kts 65°
2026-05-01 11:56 55.80045 33.78585 31814 ft 374 kts 65°
2026-05-01 11:57 55.80759 33.82954 31559 ft 372 kts 65°
2026-05-01 11:57 55.81476 33.87363 31309 ft 370 kts 65°
2026-05-01 11:57 55.82187 33.91752 31053 ft 368 kts 65°
2026-05-01 11:57 55.82894 33.96114 30804 ft 366 kts 65°
2026-05-01 11:58 55.83598 34.00462 30562 ft 365 kts 65°
2026-05-01 11:58 55.84294 34.04780 30310 ft 363 kts 65°
2026-05-01 11:58 55.85667 34.13330 29814 ft 355 kts 65°
2026-05-01 11:59 55.86343 34.17547 29525 ft 353 kts 65°
2026-05-01 11:59 55.87017 34.21750 29240 ft 352 kts 65°
2026-05-01 11:59 55.87682 34.25924 28959 ft 351 kts 65°
2026-05-01 12:00 55.88964 34.34281 28404 ft 352 kts 69°
2026-05-01 12:00 55.89280 34.38648 28129 ft 360 kts 77°
2026-05-01 12:00 55.89447 34.47556 27591 ft 359 kts 78°
2026-05-01 12:01 55.89530 34.51995 27326 ft 358 kts 78°
2026-05-01 12:01 55.89614 34.56420 27058 ft 357 kts 78°
2026-05-01 12:01 55.89698 34.60830 26804 ft 356 kts 78°
2026-05-01 12:01 55.89779 34.65241 26543 ft 355 kts 78°
2026-05-01 12:02 55.89858 34.69621 26286 ft 354 kts 78°
2026-05-01 12:02 55.89932 34.73947 26035 ft 353 kts 78°
2026-05-01 12:02 55.90006 34.78372 25780 ft 352 kts 79°
2026-05-01 12:02 55.90075 34.82659 25534 ft 351 kts 79°
2026-05-01 12:03 55.90146 34.87011 25327 ft 352 kts 80°
2026-05-01 12:03 55.90219 34.91377 25087 ft 353 kts 80°
2026-05-01 12:03 55.90286 34.95745 24838 ft 352 kts 80°
2026-05-01 12:03 55.90352 35.00109 24601 ft 352 kts 81°
2026-05-01 12:04 55.90417 35.04469 24360 ft 352 kts 81°
2026-05-01 12:04 55.90482 35.08814 24123 ft 351 kts 81°
2026-05-01 12:04 55.90546 35.13164 23883 ft 351 kts 81°
2026-05-01 12:04 55.90608 35.17507 23613 ft 350 kts 81°
2026-05-01 12:05 55.90668 35.21845 23334 ft 350 kts 82°
2026-05-01 12:05 55.90785 35.30494 22772 ft 348 kts 82°
2026-05-01 12:05 55.90841 35.34797 22373 ft 347 kts 82°
2026-05-01 12:06 55.90895 35.39080 21928 ft 343 kts 82°
2026-05-01 12:06 55.90945 35.43293 21507 ft 338 kts 82°
2026-05-01 12:06 55.90991 35.47472 21096 ft 334 kts 82°
2026-05-01 12:06 55.91036 35.51595 20671 ft 331 kts 82°
2026-05-01 12:07 55.91085 35.55690 20256 ft 328 kts 82°
2026-05-01 12:07 55.91136 35.59731 19836 ft 326 kts 82°
2026-05-01 12:07 55.91183 35.63758 19421 ft 324 kts 83°
2026-05-01 12:07 55.91227 35.67749 19003 ft 322 kts 83°
2026-05-01 12:08 55.91266 35.71730 18589 ft 320 kts 83°
2026-05-01 12:08 55.91299 35.75642 18136 ft 319 kts 83°
2026-05-01 12:08 55.91331 35.79585 17714 ft 316 kts 83°
2026-05-01 12:08 55.91368 35.83492 17301 ft 314 kts 83°
2026-05-01 12:09 55.91590 35.87311 16929 ft 308 kts 76°
2026-05-01 12:09 55.91901 35.91163 16595 ft 318 kts 77°
2026-05-01 12:09 55.92203 35.95066 16250 ft 319 kts 77°
2026-05-01 12:09 55.92496 35.98978 15900 ft 318 kts 77°
2026-05-01 12:10 55.92784 36.02877 15552 ft 316 kts 77°
2026-05-01 12:10 55.93364 36.10628 14857 ft 313 kts 76°
2026-05-01 12:10 55.93961 36.14299 14515 ft 305 kts 62°
2026-05-01 12:11 55.96544 36.20039 13883 ft 296 kts 34°
2026-05-01 12:11 55.98328 36.21830 13580 ft 294 kts 22°
2026-05-01 12:11 56.00218 36.23182 13338 ft 288 kts 21°
2026-05-01 12:12 56.02045 36.24502 13183 ft 279 kts 21°
2026-05-01 12:12 56.03827 36.25793 12907 ft 274 kts 21°
2026-05-01 12:12 56.05584 36.27058 12639 ft 271 kts 21°
2026-05-01 12:12 56.07333 36.28309 12378 ft 271 kts 21°
2026-05-01 12:13 56.09083 36.29563 12111 ft 271 kts 21°
2026-05-01 12:13 56.10827 36.30817 11846 ft 271 kts 21°
2026-05-01 12:13 56.12573 36.32072 11659 ft 271 kts 21°
2026-05-01 12:13 56.14326 36.33327 11393 ft 271 kts 21°
2026-05-01 12:14 56.16066 36.34590 11107 ft 270 kts 24°
2026-05-01 12:14 56.17656 36.36315 10820 ft 271 kts 36°
2026-05-01 12:14 56.19180 36.38374 10522 ft 271 kts 36°
2026-05-01 12:14 56.20699 36.40418 10104 ft 275 kts 36°
2026-05-01 12:15 56.22205 36.42442 9710 ft 274 kts 36°
2026-05-01 12:15 56.23728 36.44485 9425 ft 272 kts 35°
2026-05-01 12:15 56.25144 36.46711 9127 ft 272 kts 47°
2026-05-01 12:15 56.26188 36.49543 8836 ft 273 kts 63°
2026-05-01 12:16 56.26792 36.52788 8547 ft 275 kts 73°
2026-05-01 12:16 56.27278 36.56113 8279 ft 274 kts 75°
2026-05-01 12:16 56.27407 36.59541 8123 ft 278 kts 97°
2026-05-01 12:16 56.26955 36.62923 8004 ft 279 kts 103°
2026-05-01 12:17 56.26446 36.66301 7875 ft 279 kts 104°
2026-05-01 12:17 56.25933 36.69664 7740 ft 279 kts 104°
2026-05-01 12:17 56.25420 36.73025 7614 ft 278 kts 104°
2026-05-01 12:17 56.24913 36.76332 7494 ft 278 kts 104°
2026-05-01 12:18 56.24392 36.79731 7360 ft 279 kts 104°
2026-05-01 12:18 56.23887 36.83044 7237 ft 279 kts 104°
2026-05-01 12:18 56.23373 36.86397 7099 ft 278 kts 104°
2026-05-01 12:18 56.22861 36.89744 6982 ft 278 kts 104°
2026-05-01 12:19 56.22346 36.93097 6852 ft 278 kts 104°
2026-05-01 12:19 56.21830 36.96443 6724 ft 277 kts 105°
2026-05-01 12:19 56.21314 36.99774 6596 ft 277 kts 105°
2026-05-01 12:19 56.20797 37.03103 6464 ft 276 kts 105°
2026-05-01 12:20 56.20279 37.06430 6324 ft 276 kts 105°
2026-05-01 12:20 56.19761 37.09751 6190 ft 276 kts 105°
2026-05-01 12:20 56.19244 37.13060 6056 ft 275 kts 105°
2026-05-01 12:20 56.18726 37.16366 5922 ft 274 kts 105°
2026-05-01 12:21 56.18210 37.19652 5787 ft 274 kts 105°
2026-05-01 12:21 56.17693 37.22944 5658 ft 273 kts 105°
2026-05-01 12:21 56.17192 37.26220 5533 ft 272 kts 104°
2026-05-01 12:21 56.16702 37.29486 5399 ft 271 kts 104°
2026-05-01 12:22 56.16213 37.32757 5265 ft 271 kts 104°
2026-05-01 12:22 56.15731 37.35978 5144 ft 271 kts 104°
2026-05-01 12:22 56.15239 37.39234 5013 ft 270 kts 104°
2026-05-01 12:22 56.14749 37.42468 4879 ft 269 kts 104°
2026-05-01 12:23 56.14258 37.45707 4741 ft 268 kts 104°
2026-05-01 12:23 56.13769 37.48938 4610 ft 269 kts 104°
2026-05-01 12:23 56.13277 37.52170 4478 ft 268 kts 105°
2026-05-01 12:23 56.12783 37.55381 4343 ft 267 kts 105°
2026-05-01 12:24 56.12289 37.58584 4207 ft 264 kts 105°
2026-05-01 12:24 56.11807 37.61707 4070 ft 256 kts 105°
2026-05-01 12:24 56.11342 37.64734 3939 ft 247 kts 105°
2026-05-01 12:24 56.10891 37.67648 3807 ft 238 kts 105°
2026-05-01 12:25 56.10457 37.70454 3679 ft 230 kts 105°
2026-05-01 12:25 56.09348 37.75583 3409 ft 218 kts 137°
2026-05-01 12:25 56.08018 37.76729 3279 ft 214 kts 178°
2026-05-01 12:26 56.06586 37.76274 3158 ft 211 kts 202°
2026-05-01 12:26 56.03889 37.74679 2885 ft 198 kts 200°
2026-05-01 12:26 56.02677 37.73603 2752 ft 192 kts 221°
2026-05-01 12:27 56.01787 37.71861 2624 ft 189 kts 241°
2026-05-01 12:27 56.00972 37.67459 2508 ft 186 kts 258°
2026-05-01 12:28 56.00314 37.62966 2511 ft 187 kts 257°
2026-05-01 12:28 55.99983 37.60714 2479 ft 187 kts 257°
2026-05-01 12:28 55.99358 37.56474 2077 ft 166 kts 257°
2026-05-01 12:29 55.99075 37.54563 1878 ft 151 kts 258°
2026-05-01 12:29 55.98820 37.52839 1671 ft 139 kts 258°
2026-05-01 12:29 55.98337 37.49571 1280 ft 134 kts 258°
2026-05-01 12:30 55.97866 37.46337 886 ft 135 kts 257°
2026-05-01 12:30 55.97618 37.44693 737 ft 138 kts 258°
2026-05-01 12:30 55.97379 37.43076 643 ft 124 kts 257°
2026-05-01 12:31 55.97197 37.41857 642 ft 77 kts 255°
2026-05-01 12:31 55.97100 37.41201 645 ft 43 kts 255°
2026-05-01 12:31 55.97029 37.40691 639 ft 42 kts 256°
2026-05-01 12:31 55.96954 37.40212 642 ft 37 kts 255°
2026-05-01 12:32 55.96967 37.40026 641 ft 11 kts 29°
2026-05-01 12:32 55.97164 37.39954 639 ft 18 kts 344°
2026-05-01 12:32 55.97299 37.39897 638 ft 19 kts 346°
2026-05-01 12:33 55.97354 37.39972 639 ft 10 kts 91°
2026-05-01 12:33 55.97374 37.40107 643 ft 13 kts 73°
2026-05-01 12:33 55.97399 37.40281 639 ft 16 kts 75°
2026-05-01 12:33 55.97430 37.40492 642 ft 19 kts 75°
2026-05-01 12:34 55.97467 37.40737 642 ft 22 kts 75°
2026-05-01 12:34 55.97511 37.41015 641 ft 24 kts 74°
2026-05-01 12:34 55.97553 37.41159 642 ft 10 kts 354°
2026-05-01 12:34 55.97619 37.41175 648 ft 12 kts 56°
2026-05-01 12:35 55.97687 37.41201 642 ft 7 kts 344°
2026-05-01 12:35 55.97712 37.41190 640 ft 0 kts 345°